User: anonymous   Login
Location: Capannuccia
(43.7000°N, 11.3000°E)
Time: 17:14:27
(UTC+00:00)
Language:

STARLINK-1312 - Orbit

View from above orbital plane
View from above orbital plane
View from above satellite
View from above satellite

Ground track
Ground track

The orbit data is extracted from the following two-line orbital elements,

1 45398C 20019AQ  21128.17536086 -.00004034  00000-0 -27039-3 0  1282
2 45398  53.0538 156.8102 0000562  71.6770  34.1014 15.06390906    12
Epoch (UTC): 08 May 2021 04:12:31
Eccentricity: 0.0000562
inclination: 53.0538°
perigee height: 547 km
apogee height: 547 km
right ascension of ascending node: 156.8102°
argument of perigee: 71.6770°
revolutions per day: 15.06390906
mean anomaly at epoch: 34.1014°
orbit number at epoch: 1

The dashed part of the orbit path shows where the satellite is in the earth's shadow,  

DLR